Location: Castifao
(42.5040°N, 9.1124°E)
Time: 03:28:14
(UTC+00:00)

USA 267 - Pass Details

Date: 23 January 2020
Orbit: 1099 x 1108 km, 123.0° (Epoch: 10 February)

Event Time Altitude Azimuth Distance (km) Brightness Sun altitude
Exits shadow 17:27:34 - 42° (NE) 3,075 5.1 -11.6°
Reaches altitude 10° 17:27:54 10° 41° (NE) 2,963 5.0 -11.7°
Maximum altitude 17:33:49 38° 336° (NNW) 1,611 4.2 -12.7°
Drops below altitude 10° 17:39:44 10° 271° (W) 2,961 6.8 -13.8°
Sets 17:42:23 0° 264° (W) 3,918 8.0 -14.3°
